TimeEST,TemperatureF,Dew PointF,Humidity,Sea Level PressureIn,VisibilityMPH,Wind Direction,Wind SpeedMPH,Gust SpeedMPH,PrecipitationIn,Events,Conditions,WindDirDegrees,DateUTC
12:15 AM,15.8,-5.8,38,29.80,10.0,West,23.0,31.1,N/A,,Clear,280,2014-01-07 05:15:00
12:35 AM,12.2,-7.6,41,29.83,10.0,West,26.5,41.4,N/A,,Clear,280,2014-01-07 05:35:00
12:55 AM,12.2,-9.4,38,29.84,10.0,WNW,26.5,38.0,N/A,,Clear,290,2014-01-07 05:55:00
1:15 AM,12.2,-11.2,34,29.84,10.0,West,25.3,34.5,N/A,,Clear,270,2014-01-07 06:15:00
1:35 AM,10.4,-11.2,37,29.86,10.0,West,19.6,34.5,N/A,,Clear,280,2014-01-07 06:35:00
1:55 AM,10.4,-11.2,37,29.87,10.0,West,23.0,39.1,N/A,,Clear,270,2014-01-07 06:55:00
2:15 AM,8.6,-9999,N/A,29.90,10.0,WNW,25.3,34.5,N/A,,Clear,290,2014-01-07 07:15:00
2:35 AM,8.6,-13.0,37,29.91,10.0,WNW,21.9,29.9,N/A,,Clear,290,2014-01-07 07:35:00
2:55 AM,8.6,-9999,N/A,29.93,10.0,West,28.8,41.4,N/A,,Clear,280,2014-01-07 07:55:00
3:15 AM,8.6,-14.8,34,29.94,10.0,West,18.4,32.2,N/A,,Clear,280,2014-01-07 08:15:00
3:35 AM,8.6,-14.8,34,29.95,10.0,West,21.9,32.2,N/A,,Clear,280,2014-01-07 08:35:00
3:55 AM,8.6,-13.0,37,29.96,10.0,WNW,17.3,28.8,N/A,,Clear,290,2014-01-07 08:55:00
4:15 AM,6.8,-13.0,40,29.97,10.0,WNW,18.4,36.8,N/A,,Clear,290,2014-01-07 09:15:00
4:35 AM,6.8,-14.8,37,29.99,10.0,West,23.0,41.4,N/A,,Clear,280,2014-01-07 09:35:00
4:55 AM,6.8,-14.8,37,30.01,10.0,WNW,20.7,39.1,N/A,,Clear,290,2014-01-07 09:55:00
5:15 AM,6.8,-14.8,37,30.02,10.0,WNW,23.0,32.2,N/A,,Clear,290,2014-01-07 10:15:00
5:35 AM,5.0,-14.8,40,30.04,10.0,West,24.2,40.3,N/A,,Clear,280,2014-01-07 10:35:00
5:55 AM,5.0,-16.6,36,30.05,10.0,WNW,23.0,31.1,N/A,,Clear,290,2014-01-07 10:55:00
6:15 AM,5.0,-14.8,40,30.06,10.0,West,20.7,27.6,N/A,,Clear,280,2014-01-07 11:15:00
6:35 AM,3.2,-14.8,43,30.08,10.0,West,18.4,33.4,N/A,,Clear,280,2014-01-07 11:35:00
6:55 AM,3.2,-14.8,43,30.10,10.0,West,20.7,27.6,N/A,,Clear,280,2014-01-07 11:55:00
7:15 AM,3.2,-16.6,39,30.11,10.0,WNW,17.3,31.1,N/A,,Clear,290,2014-01-07 12:15:00
7:35 AM,3.2,-16.6,39,30.13,10.0,West,21.9,32.2,N/A,,Clear,280,2014-01-07 12:35:00
7:55 AM,3.2,-16.6,39,30.14,10.0,West,17.3,31.1,N/A,,Clear,280,2014-01-07 12:55:00
8:15 AM,3.2,-16.6,39,30.16,10.0,West,21.9,31.1,N/A,,Clear,270,2014-01-07 13:15:00
8:35 AM,3.2,-16.6,39,30.17,10.0,West,20.7,35.7,N/A,,Clear,270,2014-01-07 13:35:00
8:55 AM,3.2,-16.6,39,30.18,10.0,West,21.9,38.0,N/A,,Clear,280,2014-01-07 13:55:00
9:15 AM,5.0,-16.6,36,30.19,10.0,West,20.7,32.2,N/A,,Clear,270,2014-01-07 14:15:00
9:35 AM,6.8,-16.6,34,30.21,10.0,WNW,20.7,34.5,N/A,,Clear,290,2014-01-07 14:35:00
9:55 AM,6.8,-16.6,34,30.22,10.0,West,26.5,33.4,N/A,,Clear,270,2014-01-07 14:55:00
10:15 AM,6.8,-16.6,34,30.23,10.0,WNW,20.7,25.3,N/A,,Clear,290,2014-01-07 15:15:00
10:35 AM,6.8,-14.8,37,30.23,10.0,WNW,20.7,28.8,N/A,,Clear,290,2014-01-07 15:35:00
10:55 AM,8.6,-14.8,34,30.22,10.0,West,20.7,26.5,N/A,,Clear,280,2014-01-07 15:55:00
11:15 AM,8.6,-14.8,34,30.21,10.0,West,19.6,29.9,N/A,,Clear,280,2014-01-07 16:15:00
11:35 AM,8.6,-14.8,34,30.19,10.0,WNW,20.7,28.8,N/A,,Clear,300,2014-01-07 16:35:00
11:55 AM,8.6,-14.8,34,30.19,10.0,WNW,24.2,32.2,N/A,,Clear,290,2014-01-07 16:55:00
12:15 PM,8.6,-14.8,34,30.19,10.0,West,16.1,29.9,N/A,,Clear,270,2014-01-07 17:15:00
12:35 PM,8.6,-13.0,37,30.19,10.0,WNW,21.9,32.2,N/A,,Clear,290,2014-01-07 17:35:00
12:55 PM,10.4,-9999,N/A,30.19,10.0,WNW,16.1,24.2,N/A,,Clear,290,2014-01-07 17:55:00
1:15 PM,10.4,-9999,N/A,30.19,10.0,West,15.0,29.9,N/A,,Clear,270,2014-01-07 18:15:00
1:35 PM,8.6,-9999,N/A,30.20,10.0,West,21.9,28.8,N/A,,Clear,280,2014-01-07 18:35:00
1:55 PM,10.4,-13.0,34,30.22,10.0,West,18.4,27.6,N/A,,Clear,280,2014-01-07 18:55:00
2:15 PM,10.4,-13.0,34,30.22,10.0,West,20.7,28.8,N/A,,Clear,260,2014-01-07 19:15:00
2:35 PM,10.4,-9999,N/A,30.22,10.0,West,20.7,25.3,N/A,,Clear,270,2014-01-07 19:35:00
2:55 PM,10.4,-13.0,34,30.22,10.0,West,20.7,31.1,N/A,,Clear,280,2014-01-07 19:55:00
3:15 PM,10.4,-9999,N/A,30.23,10.0,West,24.2,33.4,N/A,,Clear,280,2014-01-07 20:15:00
3:35 PM,10.4,-13.0,34,30.23,10.0,West,19.6,28.8,N/A,,Clear,280,2014-01-07 20:35:00
3:55 PM,8.6,-9999,N/A,30.24,10.0,West,16.1,26.5,N/A,,Clear,280,2014-01-07 20:55:00
4:15 PM,8.6,-11.2,40,30.24,10.0,West,15.0,23.0,N/A,,Clear,270,2014-01-07 21:15:00
4:35 PM,8.6,-11.2,40,30.25,10.0,West,11.5,20.7,N/A,,Clear,280,2014-01-07 21:35:00
4:55 PM,8.6,-11.2,40,30.26,10.0,West,12.7,19.6,N/A,,Clear,270,2014-01-07 21:55:00
5:15 PM,8.6,-11.2,40,30.27,10.0,WNW,12.7,-,N/A,,Clear,290,2014-01-07 22:15:00
5:35 PM,8.6,-11.2,40,30.27,10.0,West,11.5,18.4,N/A,,Clear,280,2014-01-07 22:35:00
5:55 PM,8.6,-11.2,40,30.28,10.0,West,13.8,24.2,N/A,,Clear,280,2014-01-07 22:55:00
6:15 PM,8.6,-11.2,40,30.28,10.0,West,12.7,20.7,N/A,,Clear,280,2014-01-07 23:15:00
6:35 PM,8.6,-11.2,40,30.29,10.0,West,9.2,21.9,N/A,,Clear,280,2014-01-07 23:35:00
6:55 PM,8.6,-11.2,40,30.29,10.0,West,11.5,20.7,N/A,,Clear,280,2014-01-07 23:55:00
7:15 PM,8.6,-11.2,40,30.31,10.0,West,11.5,-,N/A,,Clear,270,2014-01-08 00:15:00
7:35 PM,8.6,-9.4,44,30.32,10.0,West,9.2,-,N/A,,Clear,270,2014-01-08 00:35:00
7:55 PM,8.6,-9.4,44,30.33,10.0,West,11.5,-,N/A,,Clear,270,2014-01-08 00:55:00
8:15 PM,8.6,-9.4,44,30.33,10.0,West,10.4,16.1,N/A,,Clear,270,2014-01-08 01:15:00
8:35 PM,8.6,-9.4,44,30.33,10.0,West,11.5,18.4,N/A,,Clear,280,2014-01-08 01:35:00
8:55 PM,10.4,-9.4,41,30.35,10.0,West,12.7,17.3,N/A,,Clear,270,2014-01-08 01:55:00
9:15 PM,10.4,-9.4,41,30.36,10.0,West,9.2,-,N/A,,Clear,270,2014-01-08 02:15:00
9:35 PM,10.4,-9.4,41,30.37,10.0,West,11.5,16.1,N/A,,Clear,280,2014-01-08 02:35:00
9:55 PM,8.6,-9.4,44,30.37,10.0,West,9.2,-,N/A,,Clear,260,2014-01-08 02:55:00
10:15 PM,8.6,-7.6,48,30.38,10.0,West,6.9,-,N/A,,Clear,260,2014-01-08 03:15:00
10:35 PM,8.6,-9.4,44,30.38,10.0,West,9.2,-,N/A,,Clear,270,2014-01-08 03:35:00
10:55 PM,10.4,-7.6,44,30.38,10.0,West,10.4,16.1,N/A,,Clear,260,2014-01-08 03:55:00
11:15 PM,10.4,-9.4,41,30.38,10.0,West,10.4,-,N/A,,Clear,260,2014-01-08 04:15:00
11:35 PM,10.4,-7.6,44,30.39,10.0,West,8.1,-,N/A,,Clear,270,2014-01-08 04:35:00
11:55 PM,10.4,-7.6,44,30.39,10.0,West,10.4,17.3,N/A,,Clear,260,2014-01-08 04:55:00